カタログに戻る

COSMOS 2277

GLONASS

運用中ナビゲーションMEO
NORAD 23044·PAYLOAD·🇷🇺 Russia

打ち上げ Apr 11, 1994 から Baikonur Cosmodrome

Loading…

次のパス (今後24時間)

TLE

最新Source: Space-Track

元期: Sep 13, 2026, 09:42 UTC

1 23044U 94021B   26256.40426505 -.00000031  00000-0  00000-0 0  9991
2 23044  63.9199 297.5141 0059410 209.6493 218.5550  2.13104691252296

AllMySatでCOSMOS 2277をリアルタイム追跡

Download on the App Store